Location: Dębieńsko Wielkie
(50.1667°N, 18.7333°E)
Time: 05:26:42
(UTC+02:00)

ISS - Visible Passes

Search period start: 28 May 2018 00:00
Search period end: 07 June 2018 00:00
Orbit: 402 x 407 km, 51.6° (Epoch: 28 May)

Date Brightness Start Highest point End Pass type
(mag) Time Alt. Az. Time Alt. Az. Time Alt. Az.
28 May -1.5 01:07:38 10° W 01:08:21 15° W 01:08:21 15° W visible
28 May -3.6 22:38:43 10° WNW 22:42:00 72° N 22:45:05 11° E visible
29 May -3.0 00:15:17 10° W 00:17:42 36° WSW 00:17:42 36° WSW visible
29 May -3.4 21:46:28 10° W 21:49:43 65° N 21:52:59 10° E visible
29 May -3.9 23:23:01 10° WNW 23:26:15 64° SSW 23:27:05 43° SE visible
30 May -3.9 22:30:45 10° WNW 22:34:02 87° SSW 22:36:30 16° ESE visible
31 May -2.0 00:07:31 10° W 00:09:08 20° WSW 00:09:08 20° WSW visible
31 May -3.7 21:38:29 10° WNW 21:41:46 76° N 21:45:03 10° E visible
31 May -3.2 23:15:04 10° W 23:18:07 37° SSW 23:18:34 35° S visible
01 Jun -3.7 22:22:44 10° WNW 22:25:57 56° SSW 22:28:02 19° SE visible
02 Jun -1.3 00:00:17 10° WSW 00:00:40 11° WSW 00:00:40 11° WSW visible
02 Jun -3.8 21:30:26 10° WNW 21:33:43 79° SSW 21:36:58 10° ESE visible
02 Jun -2.2 23:07:19 10° W 23:09:51 21° SW 23:10:09 20° SSW visible
03 Jun -2.8 22:14:45 10° W 22:17:43 32° SSW 22:19:40 17° SSE visible
04 Jun -1.4 23:00:27 10° WSW 23:01:23 11° SW 23:01:50 11° SW visible
05 Jun -1.8 22:07:02 10° W 22:09:20 18° SW 22:11:24 11° S visible
